Regional Weather Roundup
Issued by NWS

Home | Current Version | Previous Version | Text Only | Print | Product List | Glossary Off
Versions: 1 2 3 4 5 6 7 8 9 10 11 12 13 14 15 16 17 18 19 20 21 22 23 24 25 26 27 28 29 30 31 32 33 34 35 36 37 38 39 40 41 42 43 44 45 46 47 48 49 50

000
ASUS43 KMKX 261900
RWRWI

WISCONSIN REGIONAL WEATHER ROUNDUP
NATIONAL WEATHER SERVICE MILWAUKEE/SULLIVAN WI
100 PM CST FRI DEC 26 2014

NOTE: "FAIR" INDICATES FEW OR NO CLOUDS BELOW 12,000 FEET WITH NO
SIGNIFICANT WEATHER AND/OR OBSTRUCTIONS TO VISIBILITY.

WIZ001-002-006>008-014>016-023>028-262000-
NORTHWEST WISCONSIN

CITY           SKY/WX    TMP DP  RH WIND       PRES   REMARKS
SUPERIOR ARPT  CLOUDY    32  25  77 N3        30.05S
ASHLAND        CLOUDY    31  27  85 N7        30.02F WCI  24
HAYWARD        CLOUDY    31  26  82 N12       29.99F WCI  22
SIREN          CLOUDY    30  27  86 N9        30.02F WCI  22
CUMBERLAND     CLOUDY    30  28  93 N10       29.98S WCI  21
RICE LAKE      CLOUDY    32  28  86 N13       29.99F WCI  22
CHETEK         CLOUDY    32  29  90 N3        29.97F
LADYSMITH      CLOUDY    32  30  92 N9        29.97F FOG     WCI  25
EAU CLAIRE     NOT AVBL
MENOMONIE      CLOUDY    34  31  87 N8        29.98S WCI  27
NEW RICHMOND   CLOUDY    32  30  92 N9        30.00S WCI  24
OSCEOLA        CLOUDY    32  31  97 N8        30.04S WCI  24
$$

WIZ003>005-009-010-017-018-262000-
NORTH CENTRAL WISCONSIN

CITY           SKY/WX    TMP DP  RH WIND       PRES   REMARKS
MANITOWISH WTR LGT SNOW  30  30 100 N3        29.95F
ARBOR VITAE    MIX PCPN  32  30  93 N6        29.95S WCI  26
WOODRUFF       MIX PCPN  32  30  93 N6        29.95S WCI  26
RHINELANDER    CLOUDY    30  29  96 N5        29.94S FOG     WCI  25
EAGLE RIVER    MIX PCPN  30  30  99 N6        29.94F WCI  24
LAND O LAKES   LGT SNOW  30  29  94 N3        29.95F
PHILLIPS       CLOUDY    30  28  94 N8        29.94F WCI  22
TOMAHAWK       CLOUDY    31  30  94 CALM      29.94F FOG
MEDFORD        CLOUDY    32  30  93 N7        29.93S FOG     WCI  26
MERRILL        CLOUDY    32  32  98 N3        29.94S FOG
$$

WIZ029-030-035-036-043>047-262000-
CENTRAL WISCONSIN

CITY           SKY/WX    TMP DP  RH WIND       PRES   REMARKS
WAUSAU         CLOUDY    33  30  88 N6        29.92S WCI  28
MOSINEE        FOG       30  30 100 CALM      29.93S VSB 1/2
MARSHFIELD     FAIR      39  32  76 N8        29.92S WCI  33
STEVENS POINT  FAIR      36  31  82 NE6       29.93S WCI  31
WAUPACA        FAIR      37  36  96 N5        29.94F FOG     WCI  33
WAUTOMA        NOT AVBL
WISC RAPIDS    FAIR      42  32  67 VRB3      29.92F
CAMP DOUGLAS   NOT AVBL
$$

WIZ011>013-019>022-031-037>040-048>050-262000-
NORTHEAST WISCONSIN

CITY           SKY/WX    TMP DP  RH WIND       PRES   REMARKS
ANTIGO         CLOUDY    31  31 100 N3        29.93S FOG
SHAWANO        FOG       34  33  96 CALM      29.95F VSB 1/4
OCONTO         CLOUDY    36  35  95 CALM      29.95S
STURGEON BAY   CLOUDY    37  34  87 W3        29.96S
GREEN BAY      PTSUNNY   44  36  73 CALM      29.95S
MANITOWOC      PTSUNNY   46  36  66 W5        29.95S
APPLETON       MOSUNNY   41  34  75 W7        29.94F
CLINTONVILLE   FOG       32  32 100 CALM      29.95S VSB 1/4
OSHKOSH        FAIR      44  36  73 SW7       29.94S
$$

WIZ032>034-041-042-053>061-262000-
SOUTHWEST WISCONSIN

CITY           SKY/WX    TMP DP  RH WIND       PRES   REMARKS
LA CROSSE      FAIR      42  32  67 NW7       29.93F
SPARTA         FAIR      42  32  66 W3        29.93F
VIROQUA        FAIR      40  33  77 CALM      29.91F
BOSCOBEL       FAIR      47  33  58 CALM      29.93F
PRAIRIE DU CHI FAIR      44  32  61 CALM      29.92F
PLATTEVILLE    FAIR      44  35  72 SW10      29.95S
$$

WIZ056-057-062-063-064-067-068-262000-
SOUTH CENTRAL WISCONSIN

CITY           SKY/WX    TMP DP  RH WIND       PRES   REMARKS
REEDSBURG      FAIR      43  33  69 W5        29.92S
BARABOO/DELLS  FAIR      45  33  63 W6        29.92F
LONE ROCK      NOT AVBL
MINERAL POINT  FAIR      43  34  70 SW6       29.93S
MADISON        PTSUNNY   45  34  65 VRB5      29.94S
MIDDLETON      FAIR      47  33  59 SW7       29.94S
WATERTOWN      FAIR      43  36  77 SW8       29.94F
MONROE         FAIR      43  36  75 SW13      29.94S
JANESVILLE     SUNNY     46  36  66 SW12      29.95F
$$

WIZ051-052-058>065-066-070>072-262000-
SOUTHEAST WISCONSIN

CITY           SKY/WX    TMP DP  RH WIND       PRES   REMARKS
MILWAUKEE      PTSUNNY   48  34  58 SW13      29.95F
WAUKESHA       PTSUNNY   45  34  65 SW9       29.96F
MILWAUKEE/TIMM NOT AVBL
RACINE         FAIR      48  36  63 SW10      29.98F
BURLINGTON     FAIR      46  36  68 S13       29.96F
KENOSHA        FAIR      48  37  65 SW13      29.97F
FOND DU LAC    FAIR      44  35  70 SW8       29.94F
SHEBOYGAN      FAIR      45  35  68 W5        29.94F
WEST BEND      FAIR      43  32  65 W8        29.95F
JUNEAU         FAIR      42  36  79 S8        29.95S
$$

LSZ147-162-262000-
LAKE SUPERIOR

STATION/POSITION TIME  TEMP    WIND        PRES    WAVE
                       AIR SEA DIR/SP/G            HT/PER
                 (UTC) (F)     (DEG/KT/KT) (MB)    (FT/S)
DEVILS ISLAND    1800   33      20/  7/  9 1018.1R
PORT WING        1840   31      20/  8/  9 1017.6F
SAXON HARBOR     1800   33      20/  7/  9 1016.9S
$$

LMZ867-665-643>646-262000-
LAKE MICHIGAN

STATION/POSITION TIME  TEMP    WIND        PRES    WAVE
                       AIR SEA DIR/SP/G            HT/PER
                 (UTC) (F)     (DEG/KT/KT) (MB)    (FT/S)
CHAMBERS ISLAND  1800   36     340/  3/  4 1014.6F
NORTHPORT PIER   1800   36     330/  2/  3 1014.6F
SISTER BAY       1813             CALM       N/A
ALGOMA LAKESHORE 1815             CALM       N/A
KEWAUNEE LAKESHO 1800   39     170/  4/  6 1013.5F
SHEBOYGAN LAKESH 1800   40 39  190/  6/  7 1015.0F
PORT WASHINGTON  1800   47     240/  6/ 11 1015.2
MILWAUKEE LAKESH 1800   46     250/  9/ 14   N/A
KENOSHA   LAKESH 1800   47     260/ 11/ 15 1015.2F
$$

TC  - TEMPERATURE IN CELSIUS
VSB - VISIBILITY IN STATUTE MILES
WCI - WIND CHILL INDEX
HX  - HEAT INDEX



USA.gov is the U.S. government's official web portal to all federal, state and local government web resources and services.